Starlink 30402

operational
NORAD ID: 57827 Int'l Des: 2023-138 Owner: SPXS Country: US Constellation: starlink
LEOCIRCULAR

About Starlink 30402

Description loading...

Live Position

Loading 3D Globe...

Upcoming Passes

Altitude History

Altitude vs Time

uPlot chart will show altitude changes over time

Two-Line Element Set

1 57827U 23138V 25351.21934949 -.00001363 00000-0 -85824-4 0 9999
2 57827 43.0045 323.9075 0001201 270.2695 89.8010 15.02543721126309
Epoch: Dec 17, 2025 • Age: 15 hours

Current Status

Altitude 559.2 km
Velocity 7.59 km/s
Sub-Earth Point 22.50°N, 83.54°E
Launch Date Sep 9, 2023
Age 2.2 years
Type internet

Technical Details

Classification Payload
Mass 730.00 kg
Dry Mass 700.00 kg
Total Mass 730.00 kg
Length 0.30 m
Diameter 4.10 m
Span 29.00 m
Shape Box + pan
Manufacturer SPXS
Bus Type Starlink V2M
Phase Status In Orbit
Owner/State SPXS/US

Large Constellations

Loading constellations...